AFR860 LFPG-DXXX

Flight info

Callsign AFR860
Flight time N/A
Altitude 39000
Route AGOPA6E AGOPA DCT ARKIP DCT ARMAL DCT ARTAX DCT BEBIX DCT LMG DCT UVELI DCT OSMOB DCT VAVIX DCT NETUK DCT PPN DCT NOLSA DCT ALEPO DCT VASUM N857 BANEV DCT BAN DCT PINAR DCT CJN L27 BLN DCT MGA DCT PIMOS DCT GALTO UN869 PELAX UB11 MABAP DCT BULIS/N0479F390 UR866 OG UR983 PAMPA DCT ONVAS ONVAS1L
Aircraft B772/H-SDE2E3FGHIJ5LORVWXY/LB1D1

Departure

Time N/A
Airport Charles de Gaulle International Airport (LFPG)

Arrival

Time 2026-05-04 03:28
Airport Lomé–Tokoin International Airport (DXXX)
Time Latitude Longitude Altitude Speed Heading
2026-05-04 03:06 7.77405 0.67953 36491 ft 493 kts 155°
2026-05-04 03:06 7.74319 0.69458 35614 ft 493 kts 155°
2026-05-04 03:06 7.71218 0.70970 34609 ft 497 kts 155°
2026-05-04 03:07 7.68088 0.72494 33491 ft 502 kts 155°
2026-05-04 03:07 7.64933 0.74031 32295 ft 505 kts 155°
2026-05-04 03:07 7.61755 0.75578 31133 ft 508 kts 155°
2026-05-04 03:07 7.58614 0.77108 30167 ft 507 kts 154°
2026-05-04 03:08 7.55466 0.78643 29205 ft 501 kts 154°
2026-05-04 03:08 7.52338 0.80166 28319 ft 495 kts 154°
2026-05-04 03:08 7.49274 0.81659 27495 ft 489 kts 154°
2026-05-04 03:08 7.46229 0.83142 26686 ft 483 kts 154°
2026-05-04 03:09 7.43215 0.84609 25894 ft 478 kts 154°
2026-05-04 03:09 7.40261 0.86047 25094 ft 474 kts 154°
2026-05-04 03:09 7.37262 0.87506 24282 ft 470 kts 153°
2026-05-04 03:09 7.34324 0.88936 23488 ft 467 kts 153°
2026-05-04 03:10 7.31442 0.90337 22592 ft 464 kts 153°
2026-05-04 03:10 7.28556 0.91740 21792 ft 458 kts 152°
2026-05-04 03:10 7.25768 0.93093 21031 ft 432 kts 152°
2026-05-04 03:10 7.23126 0.94372 20333 ft 411 kts 151°
2026-05-04 03:11 7.20607 0.95593 19706 ft 393 kts 150°
2026-05-04 03:11 7.18199 0.96762 19094 ft 381 kts 150°
2026-05-04 03:11 7.15786 0.97939 18490 ft 392 kts 149°
2026-05-04 03:11 7.13270 0.99174 17793 ft 408 kts 149°
2026-05-04 03:12 7.10720 1.00420 17097 ft 407 kts 149°
2026-05-04 03:12 7.08177 1.01656 16459 ft 404 kts 150°
2026-05-04 03:12 7.05656 1.02879 15819 ft 400 kts 150°
2026-05-04 03:12 7.03154 1.04093 15209 ft 397 kts 150°
2026-05-04 03:13 7.00697 1.05283 14559 ft 382 kts 150°
2026-05-04 03:13 6.98336 1.06426 13453 ft 373 kts 150°
2026-05-04 03:13 6.95993 1.07564 12831 ft 372 kts 150°
2026-05-04 03:13 6.93669 1.08693 12246 ft 369 kts 150°
2026-05-04 03:14 6.91402 1.09795 11699 ft 367 kts 150°
2026-05-04 03:14 6.89079 1.10924 11123 ft 365 kts 150°
2026-05-04 03:14 6.86807 1.12026 10820 ft 356 kts 150°
2026-05-04 03:14 6.84647 1.13071 10654 ft 338 kts 150°
2026-05-04 03:15 6.82623 1.14047 10483 ft 308 kts 149°
2026-05-04 03:15 6.80775 1.14938 10349 ft 282 kts 149°
2026-05-04 03:15 6.79080 1.15758 10225 ft 259 kts 148°
2026-05-04 03:15 6.77496 1.16527 10144 ft 248 kts 148°
2026-05-04 03:16 6.75945 1.17286 10056 ft 248 kts 148°
2026-05-04 03:16 6.74359 1.18065 9913 ft 264 kts 148°
2026-05-04 03:16 6.72654 1.18903 9628 ft 276 kts 148°
2026-05-04 03:16 6.70915 1.19749 9314 ft 277 kts 149°
2026-05-04 03:17 6.69207 1.20575 9001 ft 275 kts 149°
2026-05-04 03:17 6.67491 1.21406 8711 ft 273 kts 149°
2026-05-04 03:17 6.65785 1.22233 8413 ft 271 kts 150°
2026-05-04 03:17 6.64091 1.23054 8114 ft 270 kts 150°
2026-05-04 03:18 6.62407 1.23871 7827 ft 268 kts 150°
2026-05-04 03:18 6.60724 1.24686 7530 ft 267 kts 150°
2026-05-04 03:18 6.59063 1.25500 7251 ft 265 kts 150°
2026-05-04 03:18 6.57407 1.26315 6974 ft 264 kts 151°
2026-05-04 03:19 6.55758 1.27127 6686 ft 263 kts 151°
2026-05-04 03:19 6.54114 1.27937 6402 ft 263 kts 152°
2026-05-04 03:19 6.52481 1.28741 6103 ft 262 kts 152°
2026-05-04 03:19 6.50848 1.29545 5809 ft 261 kts 152°
2026-05-04 03:20 6.49220 1.30347 5525 ft 260 kts 153°
2026-05-04 03:20 6.47619 1.31134 5245 ft 259 kts 153°
2026-05-04 03:20 6.46003 1.31929 4974 ft 258 kts 153°
2026-05-04 03:20 6.44395 1.32721 4700 ft 257 kts 154°
2026-05-04 03:21 6.42788 1.33511 4401 ft 256 kts 154°
2026-05-04 03:21 6.41187 1.34298 4121 ft 255 kts 154°
2026-05-04 03:21 6.39602 1.35078 3841 ft 250 kts 154°
2026-05-04 03:21 6.38081 1.35826 3594 ft 235 kts 154°
2026-05-04 03:22 6.36677 1.36516 3471 ft 215 kts 155°
2026-05-04 03:22 6.35390 1.37149 3367 ft 197 kts 155°
2026-05-04 03:22 6.34181 1.37686 3315 ft 186 kts 169°
2026-05-04 03:22 6.32912 1.37677 3333 ft 183 kts 187°
2026-05-04 03:23 6.31662 1.37398 3225 ft 188 kts 206°
2026-05-04 03:23 6.30603 1.36620 3158 ft 188 kts 217°
2026-05-04 03:23 6.29591 1.35827 2950 ft 179 kts 217°
2026-05-04 03:23 6.28652 1.35083 2745 ft 166 kts 217°
2026-05-04 03:24 6.27771 1.34380 2524 ft 163 kts 218°
2026-05-04 03:24 6.26889 1.33673 2335 ft 163 kts 218°
2026-05-04 03:24 6.26002 1.32961 2112 ft 162 kts 218°
2026-05-04 03:24 6.25123 1.32257 1915 ft 161 kts 218°
2026-05-04 03:25 6.24244 1.31553 1702 ft 160 kts 218°
2026-05-04 03:25 6.23401 1.30877 1482 ft 149 kts 219°
2026-05-04 03:25 6.22623 1.30253 1327 ft 140 kts 219°
2026-05-04 03:25 6.21866 1.29647 1146 ft 141 kts 219°
2026-05-04 03:26 6.21253 1.29156 1002 ft 142 kts 219°
2026-05-04 03:26 6.21149 1.29073 982 ft 142 kts 219°
2026-05-04 03:27 6.20372 1.28452 802 ft 143 kts 220°
2026-05-04 03:27 6.19589 1.27825 596 ft 145 kts 220°
2026-05-04 03:27 6.18806 1.27191 397 ft 145 kts 219°
2026-05-04 03:27 6.18035 1.26579 221 ft 145 kts 219°
2026-05-04 03:28 6.17268 1.25964 67 ft 137 kts 218°
2026-05-04 03:28 6.16631 1.25457 67 ft 91 kts 218°
2026-05-04 03:28 6.16303 1.25197 65 ft 35 kts 218°
2026-05-04 03:28 6.16119 1.25053 65 ft 32 kts 218°
2026-05-04 03:29 6.15952 1.24919 63 ft 30 kts 218°
2026-05-04 03:29 6.15905 1.24826 66 ft 7 kts 300°
2026-05-04 03:29 6.15934 1.24789 65 ft 7 kts 310°
2026-05-04 03:29 6.15968 1.24757 65 ft 7 kts 330°
2026-05-04 03:30 6.16018 1.24750 75 ft 10 kts
2026-05-04 03:30 6.16100 1.24798 69 ft 19 kts 39°
2026-05-04 03:30 6.16236 1.24908 63 ft 28 kts 38°
2026-05-04 03:30 6.16399 1.25036 64 ft 32 kts 38°
2026-05-04 03:31 6.16576 1.25176 67 ft 31 kts 39°
2026-05-04 03:31 6.16694 1.25276 64 ft 11 kts 46°
2026-05-04 03:31 6.16748 1.25329 70 ft 11 kts 38°
2026-05-04 03:31 6.16807 1.25375 68 ft 11 kts 38°
2026-05-04 03:32 6.16865 1.25422 72 ft 11 kts 39°
2026-05-04 03:32 6.16924 1.25469 69 ft 11 kts 35°
2026-05-04 03:32 6.16979 1.25453 83 ft 5 kts 305°
2026-05-04 03:32 6.16997 1.25428 85 ft 0 kts 308°
2026-05-04 03:33 6.16998 1.25427 85 ft 0 kts 309°